Weather History for KDNK - December, 2012

Change the Weather History Date:

Saturday, December 29, 2012

  Actual Average (KPOE) Record (KPOE)
Temperature  
Mean Temperature 40 °F -  
Max Temperature 48 °F 57 °F 73 °F (2006)
Min Temperature 30 °F 37 °F 30 °F (2000)
Degree Days  
Heating Degree Days 25    
Moisture  
Dew Point 24 °F    
Average Humidity 58    
Maximum Humidity 82    
Minimum Humidity 32    
Precipitation  
Precipitation 0.00 in - - ()
Sea Level Pressure  
Sea Level Pressure 30.31 in    
Wind  
Wind Speed 10 mph (NNW)    
Max Wind Speed 17 mph    
Max Gust Speed 24 mph    
Visibility 10 miles    
Events      
Averages and records for this station are not official NWS values.
T = Trace of Precipitation, MM = Missing Value Source: NWS Daily Summary

Daily Weather History Graph

Daily Weather History Graph

Search for Another Location

Airport or City:

Trip Planner

Search our weather history database for the weather conditions in past years. The results will help you decide how hot, cold, wet, or windy it might be!

Date:

Astronomy

Dec. 29, 2012 Rise Set
Actual Time 7:10 AM CST 5:19 PM CST
Civil Twilight 6:43 AM CST 5:46 PM CST
Nautical Twilight 6:13 AM CST 6:16 PM CST
Astronomical Twilight 5:44 AM CST 6:46 PM CST
Moon 6:46 PM CST (12/29) 7:49 AM CST (12/29)
Length of Visible Light 11h 02m
Length of Day
10h 09m
Full, 98% of the Moon is Illuminated
Dec 29
Full
Jan 4
Last Quarter
Jan 11
New
Jan 18
First Quarter
Jan 26
Full

Hourly Weather History & Observations

Time (CST) Temp. Windchill Dew Point Humidity Pressure Visibility Wind Dir Wind Speed Gust Speed Precip Events Conditions
12:53 AM 39.9 °F 33.4 °F 33.1 °F 77% 30.12 in 10.0 mi NW 10.4 mph 20.7 mph N/A   Overcast
1:53 AM 39.0 °F 29.9 °F 32.0 °F 76% 30.12 in 10.0 mi NNW 17.3 mph 24.2 mph N/A   Overcast
2:53 AM 37.9 °F 28.5 °F 30.0 °F 73% 30.17 in 10.0 mi NNW 17.3 mph 24.2 mph N/A   Overcast
3:53 AM 36.0 °F 29.0 °F 28.0 °F 73% 30.19 in 10.0 mi NNW 9.2 mph 21.9 mph N/A   Overcast
4:27 AM 35.6 °F 28.0 °F 26.6 °F 70% 30.19 in 10.0 mi NW 10.4 mph 23.0 mph N/A   Partly Cloudy
4:53 AM 34.0 °F 27.2 °F 26.1 °F 73% 30.21 in 10.0 mi NNW 8.1 mph 17.3 mph N/A   Clear
5:53 AM 33.1 °F 26.9 °F 26.1 °F 75% 30.24 in 10.0 mi NW 6.9 mph - N/A   Clear
6:53 AM 32.0 °F 26.4 °F 25.0 °F 75% 30.27 in 10.0 mi NNW 5.8 mph - N/A   Clear
7:53 AM 32.0 °F 26.4 °F 23.0 °F 69% 30.30 in 10.0 mi NW 5.8 mph - N/A   Clear
8:53 AM 33.1 °F 24.9 °F 21.0 °F 61% 30.32 in 10.0 mi NNW 10.4 mph - N/A   Clear
9:53 AM 37.9 °F 30.9 °F 19.9 °F 48% 30.35 in 10.0 mi NNW 10.4 mph - N/A   Clear
10:53 AM 39.9 °F 32.9 °F 18.0 °F 41% 30.36 in 10.0 mi North 11.5 mph 21.9 mph N/A   Clear
11:53 AM 43.0 °F 39.5 °F 19.0 °F 38% 30.34 in 10.0 mi Variable 5.8 mph - N/A   Clear
12:53 PM 46.0 °F 40.6 °F 19.0 °F 34% 30.32 in 10.0 mi North 11.5 mph 18.4 mph N/A   Clear
1:53 PM 46.0 °F 40.2 °F 19.0 °F 34% 30.32 in 10.0 mi NW 12.7 mph 18.4 mph N/A   Clear
2:53 PM 48.0 °F - 19.0 °F 32% 30.32 in 10.0 mi North 10.4 mph 17.3 mph N/A   Clear
3:53 PM 46.0 °F 42.5 °F 19.0 °F 34% 30.34 in 10.0 mi NNW 6.9 mph - N/A   Clear
4:53 PM 44.1 °F 40.1 °F 21.0 °F 40% 30.34 in 10.0 mi North 6.9 mph - N/A   Clear
5:53 PM 42.1 °F 39.2 °F 23.0 °F 47% 30.37 in 10.0 mi NNW 4.6 mph - N/A   Clear
6:53 PM 39.9 °F - 26.1 °F 58% 30.40 in 10.0 mi Calm Calm - N/A   Clear
7:53 PM 37.9 °F 35.5 °F 27.0 °F 65% 30.43 in 10.0 mi North 3.5 mph - N/A   Clear
8:53 PM 37.0 °F 32.4 °F 24.1 °F 59% 30.43 in 10.0 mi North 5.8 mph - N/A   Clear
9:53 PM 35.1 °F 32.2 °F 23.0 °F 61% 30.45 in 10.0 mi North 3.5 mph - N/A   Clear
10:53 PM 33.1 °F - 23.0 °F 66% 30.46 in 10.0 mi Calm Calm - N/A   Clear
11:53 PM 30.0 °F 26.5 °F 25.0 °F 82% 30.45 in 10.0 mi North 3.5 mph - N/A   Clear